Location: Unspecified
(58.7730°N, 5.8460°E)
Time: 21:21:21
(UTC+02:00)

CZ-3 Stage 3 - Visible Passes

Search period start: 05 July 2015 00:00
Search period end: 15 July 2015 00:00
Orbit: 428 x 34798 km, 31.0° (Epoch: 05 July)

Date Brightness Start Highest point End Pass type
(mag) Time Alt. Az. Time Alt. Az. Time Alt. Az.
05 Jul 8.0 02:23:10 10° E 02:26:51 11° E 09:57:51 10° ESE visible
08 Jul 7.9 02:12:27 10° E 02:19:36 11° E 09:52:04 10° ESE visible
11 Jul 7.8 02:02:32 10° E 02:12:26 12° E 09:46:13 10° ESE visible
14 Jul 7.6 01:53:18 10° E 02:05:21 12° E 09:40:16 10° ESE visible
